Vorticity
2 1 1 1 1 1 1 0 -0 -1 -1 -1 0 1 2 3 3 4 4 5 5 5 4 4 4 4 5 5 5 5 5 5 5 5 5 5 5 5 5 5 5 5 5 5 5 4 4 3 2 2 2 1 2 2 2 3 4 4 4 5 5 5 5 5 5 5 5 5 5 6 6 6 6 6 6 6 5 5 4 4 4 3 3 3 3 3 3 4 4 4 4 4 5 5 5 5 5 5 5 5 6 6 6
1 1 0 0 0 0 0 0 0 0 -0 0 1 2 3 4 4 4 5 5 5 4 4 4 4 4 5 5 5 5 5 5 5 5 5 5 5 5 5 5 5 5 4 4 4 3 2 2 1 1 1 1 2 2 3 3 4 4 5 5 5 5 5 5 5 5 5 5 6 6 6 6 6 6 6 6 5 5 4 4 3 3 3 3 3 3 3 4 4 4 4 4 4 4 4 4 4 5 5 5 5 5 6
1 1 0 0 0 0 0 1 1 1 1 2 3 4 4 5 5 5 5 5 5 4 4 4 4 5 5 5 5 5 5 5 5 5 5 6 5 5 5 5 4 4 4 3 3 2 2 1 1 1 1 2 2 3 4 4 4 5 5 5 5 5 5 5 5 6 6 6 6 6 6 6 6 6 6 6 5 4 4 4 3 3 3 3 3 3 3 4 4 4 4 4 4 4 4 4 4 4 4 4 5 5 5
1 1 1 1 1 1 1 1 2 2 3 4 5 5 6 6 6 5 5 5 5 4 4 4 5 5 5 5 5 5 5 5 5 5 6 6 5 5 5 4 4 4 3 2 2 2 1 1 1 2 2 3 3 4 5 5 5 5 6 6 6 6 6 6 6 6 6 6 6 6 6 6 6 6 6 5 5 4 4 4 3 3 3 3 3 3 3 4 4 4 4 4 4 4 4 4 4 4 4 4 5 5 4
1 1 1 1 2 2 2 2 3 4 4 5 6 6 6 6 6 6 5 5 5 4 4 5 5 5 5 5 5 5 5 5 5 5 5 5 5 5 4 4 4 3 3 2 2 2 2 2 2 3 3 4 4 5 6 6 6 6 6 6 6 6 6 6 6 6 6 6 6 6 6 6 6 6 6 5 5 4 4 4 3 3 3 3 3 3 4 4 4 4 4 4 4 4 4 4 4 4 5 5 5 5 5
2 2 2 2 3 3 3 3 4 4 5 6 6 6 6 6 6 6 5 5 5 4 4 5 5 5 5 4 4 4 4 4 5 5 5 5 4 4 4 4 3 3 3 2 2 2 2 3 3 4 4 5 5 6 6 6 6 6 6 6 6 6 6 6 6 6 6 6 6 6 6 6 6 6 5 5 5 4 4 4 4 4 4 4 4 4 4 4 4 4 4 4 4 4 4 4 4 5 5 5 5 5 5
3 3 4 4 4 4 4 5 5 5 5 6 6 6 6 6 6 5 5 5 4 4 4 5 5 4 4 4 4 4 4 4 4 4 4 4 4 3 3 3 3 3 2 2 2 3 3 4 4 4 5 5 6 6 6 6 6 6 6 6 6 6 6 5 5 5 5 5 6 6 6 6 5 5 5 5 4 4 4 4 4 4 4 4 4 4 4 4 4 4 4 4 4 4 4 4 5 5 5 5 5 5 5
4 5 5 5 6 6 6 6 6 5 5 5 6 6 6 6 5 5 5 4 4 4 4 4 4 4 4 4 4 4 4 4 4 4 4 3 3 3 3 3 3 3 3 3 3 4 4 4 5 5 6 6 6 6 6 6 6 6 6 5 5 5 5 5 5 5 5 5 5 5 5 5 5 5 4 4 4 4 4 3 3 3 3 3 3 3 4 4 4 4 4 4 4 4 4 4 5 5 5 5 5 5 6
6 6 6 7 7 7 7 6 6 5 5 5 5 6 6 6 5 5 5 4 4 4 4 4 4 4 4 4 4 5 5 5 4 4 3 3 3 3 3 3 3 3 3 4 4 4 4 5 5 6 6 6 6 6 6 6 6 5 5 5 5 5 5 5 5 5 5 5 5 5 5 5 4 4 4 4 4 4 3 3 3 3 3 3 3 3 3 3 4 4 4 4 4 4 4 4 5 5 5 5 5 5 6
6 6 7 7 8 8 7 7 6 5 4 4 5 5 5 5 5 5 5 5 4 4 4 4 4 4 4 4 5 5 5 4 4 4 4 4 4 4 4 4 4 4 4 4 4 5 5 5 6 6 6 6 6 6 6 6 6 5 5 5 5 5 5 5 5 5 5 5 5 5 5 4 4 4 4 4 3 3 3 3 3 3 3 3 3 3 3 3 3 3 3 4 4 4 4 5 5 5 5 5 5 5 6
6 6 7 7 8 8 7 6 5 4 4 4 4 5 5 5 5 5 5 5 4 4 4 4 4 4 4 5 5 5 4 4 4 4 4 4 4 4 4 4 4 4 4 5 5 5 5 5 6 6 6 6 6 6 6 6 6 6 6 5 5 5 5 5 5 5 5 5 5 5 5 4 4 4 4 4 4 3 3 3 3 3 3 3 3 3 3 3 3 3 3 3 3 4 4 4 5 5 5 5 5 5 5
6 6 7 7 7 7 7 6 5 4 4 4 4 4 5 5 5 5 5 5 5 4 4 4 4 4 5 5 4 4 4 4 4 4 4 4 4 5 5 5 5 5 5 5 5 5 5 6 6 6 6 6 6 6 6 6 6 6 6 6 5 5 6 5 5 5 5 5 5 5 5 4 4 4 4 4 4 4 4 3 3 3 3 3 3 3 3 3 3 2 2 2 3 3 3 4 4 4 5 5 5 5 5
6 6 7 7 7 7 6 5 4 4 3 3 4 4 4 4 5 5 5 5 5 5 4 4 4 4 4 4 4 4 4 3 3 4 4 4 5 5 5 5 5 5 5 5 5 6 6 6 6 6 6 6 6 6 6 6 6 6 6 6 6 6 5 5 5 5 5 5 5 5 5 5 4 4 4 4 4 4 4 4 3 3 3 3 3 3 3 2 2 2 2 2 2 2 2 3 3 4 4 5 5 5 5
6 6 7 7 7 6 6 5 4 4 3 3 3 4 4 4 4 5 5 5 5 5 5 5 5 5 4 4 4 4 3 3 4 4 4 5 5 5 6 6 6 6 6 6 6 6 6 6 6 6 6 6 6 6 6 6 6 6 5 5 5 5 5 5 5 5 5 5 5 5 5 5 5 4 4 4 4 4 4 4 4 3 3 3 3 3 2 2 2 2 2 2 2 2 2 2 3 3 4 4 5 5 5
6 6 6 7 7 6 6 5 4 4 3 3 3 3 4 4 4 5 5 5 5 4 5 5 5 5 4 4 4 4 3 4 4 4 5 5 6 6 6 6 6 6 6 6 6 6 6 6 6 6 6 6 6 6 5 5 5 5 5 5 5 4 4 4 4 5 5 5 5 5 5 5 5 4 4 4 4 4 4 4 4 4 3 3 3 3 2 2 2 2 2 2 2 2 2 2 3 3 4 4 5 5 6
5 6 6 7 6 6 6 5 4 4 3 3 3 3 4 4 4 4 5 5 5 5 5 5 5 4 4 4 4 4 4 4 4 4 5 5 6 6 6 6 6 6 6 6 6 6 6 6 6 6 6 6 6 6 5 5 5 5 4 4 4 4 4 4 4 4 5 5 5 5 4 4 4 4 4 4 4 4 4 4 4 4 4 4 4 4 3 3 2 2 2 2 2 2 3 3 3 4 4 5 5 6 6
5 6 6 6 6 6 6 5 4 4 4 4 3 3 4 4 4 4 5 5 5 5 5 5 4 4 4 4 4 4 4 4 4 4 5 5 6 6 6 6 6 6 6 6 6 6 6 6 6 6 6 6 5 5 5 5 4 4 4 4 4 4 4 4 4 4 4 4 4 4 4 4 4 4 4 4 4 5 5 5 6 6 6 6 6 5 5 4 4 4 4 4 4 4 4 4 4 5 5 6 6 6 6
5 5 6 6 6 6 6 5 4 4 4 4 4 4 4 4 4 4 5 5 5 5 5 5 4 4 4 4 4 4 4 4 4 4 5 5 6 6 6 6 6 6 6 6 6 6 6 6 6 6 5 5 5 5 4 4 4 4 4 4 4 4 4 4 4 4 4 4 4 4 3 3 3 3 3 4 4 5 6 6 7 7 8 8 8 8 8 7 7 7 6 6 6 6 6 6 6 6 7 7 7 7 7
5 5 6 6 6 6 6 5 4 4 4 4 4 4 4 4 4 4 5 5 6 6 5 5 4 4 4 4 4 4 4 4 4 4 5 5 6 6 6 6 6 6 6 6 6 6 6 6 5 5 5 5 5 4 4 4 4 4 4 4 4 4 4 4 4 4 4 3 3 2 2 2 2 2 2 3 4 5 6 6 7 8 8 9 10 10 10 10 10 10 10 10 9 9 8 8 8 8 8 8 8 8 8
5 5 5 6 6 6 6 5 5 4 4 4 4 4 4 4 4 4 5 5 6 5 5 4 4 4 4 4 4 4 4 4 4 4 5 6 6 6 6 6 6 6 6 6 6 5 5 5 5 5 5 4 4 4 4 4 4 4 4 4 4 4 4 4 4 4 3 2 2 1 0 0 1 1 2 3 4 4 6 6 7 8 8 9 9 10 10 11 12 12 12 12 12 11 11 10 10 10 9 9 9 8 8
5 5 5 6 6 6 6 6 5 4 4 4 4 4 4 4 4 4 5 5 5 5 5 4 4 4 5 5 4 4 4 4 4 5 6 6 6 6 6 6 6 6 6 6 5 5 5 5 5 4 4 4 4 4 4 4 4 4 4 4 4 4 4 4 3 2 2 1 0 -0 -0 0 1 1 2 3 4 5 6 7 7 7 8 8 8 9 10 10 11 12 12 12 12 12 12 11 11 10 10 10 9 9 8
5 5 5 6 6 6 6 6 5 5 4 4 4 4 4 4 4 4 5 5 5 5 5 5 5 5 5 4 4 4 4 4 5 5 6 6 6 6 6 6 6 6 5 5 5 5 5 5 5 4 4 4 4 4 4 4 4 4 4 4 4 4 4 4 3 2 1 0 -0 -0 0 1 2 2 4 4 5 6 7 7 8 8 8 8 8 8 8 9 10 10 11 11 11 11 11 11 11 10 10 10 9 9 8
5 5 5 6 6 6 6 6 5 5 4 4 4 4 4 4 4 4 5 5 5 5 4 4 5 5 5 4 4 4 4 5 5 6 6 6 6 6 6 6 6 6 5 5 5 5 5 5 4 4 4 4 4 4 4 4 4 4 4 4 4 4 3 3 2 1 0 0 0 0 1 2 3 4 4 5 6 7 7 8 8 8 8 8 8 8 8 8 9 9 10 10 10 10 10 10 10 10 9 9 9 8 8
5 5 5 6 6 6 6 6 6 5 4 5 5 5 4 5 4 4 4 5 4 4 4 4 5 5 4 4 4 4 4 5 5 6 6 6 6 6 6 6 5 5 5 5 5 5 5 4 4 4 4 4 4 4 3 4 4 4 4 4 4 3 2 2 1 1 0 0 0 1 1 2 3 4 5 6 6 7 8 8 9 9 9 9 8 8 8 8 8 9 9 9 9 9 9 9 9 9 9 8 8 8 8
6 6 6 6 6 6 6 6 6 5 5 5 5 5 5 5 4 4 4 4 4 4 4 5 4 4 4 4 4 4 4 5 6 6 6 6 6 6 6 6 5 5 5 5 4 4 4 4 4 4 4 4 4 3 3 3 4 4 4 4 3 2 2 1 0 0 0 0 0 1 2 2 3 4 5 6 6 7 8 8 9 9 9 9 9 9 9 8 9 9 9 9 9 9 8 8 8 8 8 8 8 8 7
6 6 5 6 6 6 6 6 6 6 5 5 5 5 5 5 4 4 4 4 4 4 4 5 5 4 4 4 4 4 5 5 5 6 6 6 6 6 5 5 5 5 5 4 4 4 4 4 4 4 4 3 3 3 3 3 3 4 4 3 2 2 1 0 0 -0 -0 -0 0 1 1 2 3 4 5 6 6 7 8 8 9 9 9 9 9 9 9 9 9 9 9 9 9 8 8 8 8 8 8 8 8 7 7
6 6 5 5 5 5 6 6 6 6 5 5 6 6 5 4 4 4 4 4 4 4 4 5 5 5 5 4 4 4 4 5 6 6 6 6 6 6 5 5 5 5 4 4 4 4 4 4 4 4 3 3 3 3 3 3 3 3 3 3 2 2 1 0 0 -0 -0 -0 -0 0 1 2 2 3 4 5 6 7 8 8 9 9 9 9 9 9 9 9 9 10 10 9 9 9 9 8 8 8 8 7 7 7 6
6 6 5 5 5 5 6 6 6 6 6 5 6 6 6 4 4 4 4 4 4 4 4 5 5 5 4 4 4 4 4 5 6 6 6 6 6 6 5 5 4 4 4 4 4 4 4 4 4 3 3 3 3 3 3 3 3 3 3 2 2 2 1 1 0 0 -0 -0 -0 -0 0 1 2 3 4 5 6 6 7 8 8 8 8 9 9 9 9 9 10 10 10 10 9 9 9 8 8 8 7 7 7 6 6
6 6 5 5 5 5 5 6 6 6 6 5 5 6 6 5 4 3 4 4 4 4 4 4 4 4 4 4 4 4 5 5 5 6 6 6 6 5 5 4 4 4 4 4 4 4 4 4 4 3 3 3 3 3 3 3 3 3 3 2 2 2 2 1 1 0 -0 -1 -1 -0 -0 1 2 3 4 4 5 6 7 7 8 8 8 8 9 9 9 9 10 10 10 10 10 9 9 8 8 7 7 6 6 6 6
6 6 5 5 5 5 5 5 6 6 6 6 6 5 5 5 4 3 3 3 3 4 4 4 4 4 4 4 4 5 5 5 5 6 6 6 5 5 5 4 4 4 4 4 4 4 4 3 3 3 3 3 3 3 3 3 3 3 3 2 2 2 2 2 1 0 -0 -1 -1 -1 -0 0 1 2 3 4 5 6 6 7 7 8 8 8 8 9 9 9 10 10 10 10 10 9 8 8 7 7 6 6 6 6 6
5 6 6 5 5 5 5 5 5 6 6 6 6 5 4 4 4 4 3 3 3 4 4 4 4 4 4 4 4 4 4 5 5 6 6 5 5 4 4 4 4 4 4 4 4 4 4 3 3 3 3 3 3 3 3 3 3 3 3 3 2 2 2 2 1 0 -0 -1 -1 -1 -0 0 1 2 3 4 5 6 6 7 7 8 8 8 8 9 9 10 10 10 10 10 10 9 8 7 7 6 6 5 5 5 5
6 6 6 5 5 5 5 5 5 6 6 6 6 5 4 4 4 4 4 4 3 3 4 4 4 4 4 4 4 4 4 5 5 5 5 5 4 4 4 4 4 4 4 3 3 4 3 3 3 3 3 3 3 3 3 3 3 3 3 2 2 2 2 2 1 0 -1 -1 -1 -1 -0 0 1 2 3 4 5 6 7 7 7 8 8 8 8 9 9 10 10 10 10 10 9 8 7 7 6 5 5 4 4 4 4
6 6 6 6 5 5 4 5 6 6 6 7 6 5 4 5 4 4 3 4 4 3 3 3 4 4 4 4 4 4 5 5 5 5 5 5 4 4 4 4 4 4 3 3 3 3 3 3 3 3 3 3 3 3 3 3 2 2 2 2 2 2 2 2 1 0 -1 -1 -1 -1 -0 0 1 2 3 4 5 6 7 8 8 8 8 8 9 9 10 10 10 10 10 9 8 7 7 6 5 5 4 4 4 4 4
6 6 6 6 5 5 4 5 6 6 6 7 6 5 4 4 4 4 4 3 3 3 3 3 4 4 4 4 4 4 5 5 5 5 5 5 4 4 3 4 3 3 3 3 3 3 3 3 3 3 3 3 3 3 2 2 2 2 2 2 2 2 2 1 1 -0 -1 -1 -1 -1 -0 0 1 2 2 4 5 6 7 8 8 9 9 9 9 10 10 10 10 10 9 8 7 6 6 5 4 4 4 4 4 4 4
6 6 6 6 5 5 5 5 6 6 7 7 6 6 5 4 4 4 4 3 2 2 3 3 4 4 4 4 5 5 5 5 5 5 4 4 4 4 3 3 3 3 3 3 3 3 3 3 3 3 3 3 2 2 2 2 2 2 2 2 2 2 2 1 0 -0 -1 -1 -1 -0 -0 0 1 2 2 4 5 6 8 8 9 9 9 9 10 10 10 10 10 10 9 8 7 6 5 4 4 4 4 4 4 5 5
7 7 6 6 5 5 5 5 6 6 6 7 6 6 5 4 4 4 3 3 2 2 2 3 4 4 4 5 5 6 5 5 5 5 5 4 4 4 3 3 3 3 3 3 3 3 3 3 3 3 3 3 2 2 2 2 2 2 3 3 3 2 2 1 0 -0 -1 -1 -0 -0 -0 0 1 2 2 4 5 7 8 9 10 10 10 10 10 10 10 10 10 10 9 8 7 6 5 4 4 4 4 5 5 6 6
7 7 6 6 5 5 5 5 6 6 6 6 6 5 5 4 4 3 3 2 2 2 2 3 4 4 4 5 5 5 5 4 4 5 5 4 4 3 4 3 3 3 3 3 3 3 3 3 3 3 3 2 2 2 2 2 3 3 3 3 3 3 2 1 0 -0 -0 -0 -0 -0 -0 0 1 2 2 4 6 7 9 10 10 10 10 10 10 10 10 10 10 9 8 8 7 6 5 5 5 5 5 6 6 6 6
7 6 6 6 5 5 5 5 6 6 6 6 6 5 4 4 4 4 3 2 2 2 2 3 4 4 5 5 5 5 4 4 4 4 4 4 4 4 4 3 3 3 3 3 3 3 3 3 3 3 3 3 3 3 3 3 3 3 4 4 3 2 2 1 0 -0 -0 -0 -0 -0 0 0 1 2 3 4 6 7 9 10 10 10 10 10 9 9 9 9 9 8 8 7 6 6 6 5 6 6 6 6 6 6 6
7 6 6 5 5 6 5 5 5 6 6 6 6 5 5 4 3 3 3 3 2 2 2 3 4 5 6 6 5 5 4 4 4 4 4 4 4 4 4 3 3 3 3 3 3 3 3 3 3 3 3 3 3 3 3 3 4 4 4 4 3 2 1 1 0 -0 -0 0 0 0 0 1 1 2 3 4 6 8 9 10 10 10 10 10 9 8 8 8 8 7 7 7 6 6 6 6 6 7 7 7 7 6 6
7 7 6 6 6 6 5 5 6 6 6 6 5 4 5 4 3 3 4 3 3 3 3 3 3 4 6 6 6 5 5 4 4 4 4 4 4 4 3 3 3 3 3 3 3 3 3 3 3 3 3 3 3 3 4 4 4 4 4 4 3 2 1 0 0 0 0 0 0 0 1 1 2 2 3 5 6 8 10 10 11 10 10 9 9 8 8 7 7 7 6 6 6 6 6 7 7 7 7 7 6 6 5
6 6 6 6 6 6 5 6 6 6 6 6 5 4 4 4 4 3 3 3 3 4 4 4 4 4 4 5 5 5 4 4 4 4 4 4 4 3 3 3 3 3 3 3 3 3 3 3 3 3 3 3 4 4 4 4 4 4 4 4 3 2 1 1 0 0 1 1 1 1 1 2 2 3 4 5 7 8 10 11 11 10 10 9 8 8 7 7 6 6 6 6 7 7 7 8 8 7 7 6 6 5 4
6 6 6 6 6 6 6 6 6 6 6 6 5 4 4 4 4 3 3 3 4 4 4 5 5 4 3 4 4 4 4 4 4 4 3 4 3 3 3 3 3 3 3 3 3 3 3 3 3 3 3 4 4 4 4 4 4 4 4 3 2 2 1 1 1 1 1 2 2 2 2 2 2 3 4 6 7 9 10 11 11 10 9 9 8 8 7 7 7 7 7 7 7 8 8 8 8 7 6 5 4 4 4
5 6 6 6 6 6 6 6 6 6 6 5 4 4 3 4 4 3 4 3 3 4 5 5 5 5 4 4 4 4 4 4 4 4 4 3 3 3 3 3 3 3 3 3 3 3 3 3 3 4 4 4 4 5 5 5 5 4 4 3 2 1 1 1 1 2 2 2 2 2 2 2 3 3 4 6 7 9 10 11 10 10 9 9 8 8 8 7 7 7 7 8 8 8 8 8 7 6 5 4 4 3 3
5 6 7 6 6 6 6 6 6 6 5 5 4 4 3 3 4 4 4 4 3 3 4 5 5 5 4 4 4 4 4 4 4 4 3 3 3 3 3 3 3 3 3 3 3 3 3 4 4 4 4 5 5 5 5 5 5 4 3 2 2 1 1 1 1 2 2 2 2 2 2 2 3 4 5 6 8 9 11 11 10 10 9 9 8 8 8 7 7 8 8 8 8 8 8 7 6 5 4 3 3 3 3
6 6 6 6 6 6 6 6 5 5 5 4 4 3 3 4 4 4 4 5 4 3 3 4 6 6 5 5 4 4 4 4 3 3 3 3 3 3 3 3 3 3 3 3 4 4 4 4 4 5 5 5 6 5 5 5 5 4 2 2 2 1 1 1 1 2 2 3 3 3 2 3 3 4 5 6 8 10 11 11 10 10 9 9 8 8 8 7 7 8 8 8 8 7 7 6 5 4 3 3 3 3 3
5 6 6 6 6 6 5 5 5 5 4 4 3 3 3 4 4 4 4 4 4 4 4 4 5 6 6 5 4 4 4 4 4 3 3 3 3 3 3 3 3 3 3 4 4 4 5 5 5 5 5 6 6 6 6 5 4 3 3 2 2 1 1 1 1 2 2 3 3 2 2 3 3 4 5 7 9 10 11 11 10 9 9 8 8 8 7 7 7 7 8 8 7 7 6 5 4 3 3 3 2 2 2
4 5 5 5 5 5 4 4 4 4 4 4 3 3 4 4 4 4 4 3 4 5 5 4 4 5 6 6 5 5 4 4 4 3 3 3 3 3 3 3 4 4 4 4 5 6 6 6 6 6 6 6 6 6 5 5 4 3 3 2 1 1 1 1 2 2 3 2 2 2 2 2 3 4 6 8 9 11 11 11 10 9 8 8 7 7 7 7 7 7 7 7 7 6 5 4 4 3 3 2 2 2 2
4 5 5 5 4 3 3 4 4 4 4 3 4 4 4 4 4 4 4 3 3 4 5 5 4 4 4 5 5 5 4 4 4 3 3 3 3 4 4 3 4 5 5 6 6 6 6 6 6 6 6 6 6 5 5 4 3 3 2 1 1 1 1 2 2 3 2 2 2 2 2 2 3 4 6 8 10 11 12 10 10 8 8 7 7 7 6 6 6 7 7 7 7 6 5 4 4 3 2 2 2 2 2
3 5 5 4 3 2 2 4 5 4 4 4 4 4 4 4 4 4 4 4 4 4 4 5 5 4 3 4 4 4 4 4 3 3 3 3 3 4 5 5 5 6 6 6 6 7 7 6 6 6 6 6 5 5 4 3 2 2 1 1 1 1 1 2 2 2 2 2 2 2 2 2 3 5 7 10 11 12 12 10 9 8 7 7 7 6 6 6 7 7 7 7 7 6 5 4 3 2 1 1 1 2 2
4 4 4 2 2 2 4 4 4 4 4 4 5 5 5 5 4 4 4 5 5 5 4 6 6 5 4 4 4 4 4 4 3 3 4 5 5 4 4 6 6 6 6 7 7 7 6 6 6 6 6 5 5 4 3 2 2 1 1 1 1 1 2 2 3 3 3 3 2 2 1 2 4 6 9 11 13 13 12 10 8 7 7 6 6 6 6 7 7 8 8 8 7 6 4 3 2 1 0 1 1 2 2
4 4 2 1 2 3 5 4 3 3 3 4 6 6 6 5 5 5 4 4 5 5 5 5 6 7 6 4 4 3 3 3 3 3 5 6 6 6 4 3 3 5 6 7 7 6 5 4 4 4 5 4 4 4 3 2 2 1 1 1 1 2 2 2 3 3 3 3 2 2 1 2 5 8 11 13 13 13 11 10 8 7 6 6 6 7 7 8 8 8 8 8 6 5 3 2 1 0 0 1 1 2 3
4 3 1 1 3 4 3 2 2 2 3 4 6 6 6 5 5 5 5 4 4 5 6 4 4 4 6 5 4 4 4 4 4 5 5 4 5 6 6 4 5 6 6 5 5 4 4 4 4 5 5 4 4 3 3 2 2 1 1 1 2 2 2 3 3 3 3 3 2 1 1 3 7 10 13 14 14 12 10 9 7 7 6 6 7 7 8 8 8 8 8 7 5 3 2 1 0 0 1 1 2 3 3
3 2 2 2 2 2 1 1 1 2 3 4 5 5 5 5 4 4 4 5 5 5 6 5 3 2 3 5 5 5 6 5 5 5 6 4 3 4 6 7 7 7 6 4 2 2 2 3 4 6 6 4 3 3 2 2 1 1 1 2 2 2 3 3 3 3 4 2 1 1 2 5 9 12 14 14 13 11 9 7 7 6 6 7 7 8 8 8 8 8 7 5 3 2 1 0 0 0 1 2 3 4 4
2 1 2 2 0 -0 -0 0 1 2 4 5 5 4 4 4 4 4 3 4 4 4 4 4 4 3 2 4 5 5 5 6 5 5 6 6 5 4 5 6 6 6 5 3 2 2 3 2 2 3 4 3 2 2 2 2 2 2 2 2 3 3 3 4 4 4 3 2 0 1 4 8 12 14 15 13 11 9 7 6 6 6 7 7 7 8 8 8 7 6 5 3 2 0 -0 0 0 1 2 3 4 4 5
-2 -2 -1 -2 -2 -1 0 1 2 3 4 5 5 4 4 4 4 3 3 3 3 3 3 3 4 5 4 4 4 4 3 5 5 5 5 6 6 6 4 4 5 6 5 5 4 4 1 3 3 2 2 3 3 3 2 2 2 2 3 3 3 3 4 4 4 3 2 1 1 3 7 11 13 14 14 11 9 7 6 6 6 7 7 7 8 8 7 7 6 4 2 1 0 0 0 1 2 2 4 4 5 6 6
-4 -4 -3 -3 -1 1 2 3 4 4 4 5 5 5 5 5 4 3 3 4 4 4 4 4 4 6 6 4 3 3 3 4 5 6 5 6 7 7 6 6 5 4 3 4 4 4 3 2 3 3 3 3 3 2 2 2 2 3 3 4 4 4 4 4 3 2 0 0 2 6 11 13 14 13 11 8 6 5 5 6 6 7 7 7 7 7 6 4 3 2 1 0 0 0 1 2 3 4 5 6 6 7 7
0 -2 -3 -0 2 4 5 5 4 4 5 6 6 6 5 5 4 4 4 5 5 5 5 4 4 4 6 6 4 4 4 4 6 7 7 6 6 6 7 7 5 3 2 -0 -2 -2 2 2 3 3 2 3 4 3 2 3 4 4 4 4 4 4 3 3 2 2 0 1 4 9 14 14 13 11 8 6 5 5 6 6 7 8 7 7 6 5 4 2 1 1 0 0 1 1 2 3 4 5 6 6 7 8 8
5 1 -2 1 4 6 7 6 4 4 5 6 7 6 6 7 6 6 4 5 5 5 4 4 4 4 4 5 5 5 6 6 6 6 8 7 6 6 6 5 4 4 4 3 2 1 1 3 5 4 1 2 4 6 4 4 4 5 4 3 3 3 3 3 2 1 0 3 7 12 14 13 11 8 6 6 6 6 7 8 8 8 7 5 4 2 2 1 0 0 0 1 2 3 4 4 5 6 7 7 8 9 10
6 3 0 1 3 6 6 6 5 5 5 6 6 7 8 9 8 6 4 4 4 3 3 3 4 3 2 3 4 5 7 7 6 6 6 7 8 7 5 4 3 3 3 4 5 5 3 3 4 4 3 4 3 4 6 6 4 3 3 2 2 3 3 3 2 1 1 5 10 13 13 10 8 6 6 6 7 8 8 8 8 6 4 3 2 1 0 0 0 1 2 2 3 4 5 6 6 7 8 8 9 10 11
6 4 2 2 3 4 8 9 9 9 10 8 8 8 8 9 8 6 4 4 3 2 2 2 2 2 2 3 4 5 6 6 6 6 6 6 6 6 5 3 3 2 1 2 3 4 6 4 3 3 4 4 2 2 4 5 4 3 1 1 2 3 4 3 2 1 4 8 12 13 11 8 6 6 7 8 8 9 9 8 6 4 2 1 -0 -0 -0 0 1 2 3 4 4 5 6 7 7 8 9 9 10 11 12
5 5 4 4 4 4 7 9 9 10 11 11 11 11 10 9 7 6 4 3 2 2 2 2 2 2 3 4 4 5 5 5 6 7 8 7 5 4 4 4 3 2 2 2 2 3 5 5 5 5 4 4 4 2 2 1 2 2 3 3 3 4 4 3 2 4 8 12 13 12 9 7 7 8 8 9 9 9 8 5 3 1 -0 -1 -0 -0 1 2 2 3 4 5 6 6 7 8 9 9 10 10 11 12 13
Height
5892 5892 5892 5892 5892 5892 5892 5893 5893 5893 5893 5893 5893 5893 5893 5893 5893 5893 5893 5893 5893 5893 5893 5893 5893 5893 5893 5893 5893 5893 5893 5893 5893 5893 5893 5893 5893 5893 5893 5893 5893 5892 5892 5892 5892 5892 5891 5891 5891 5891 5891 5891 5890 5890 5890 5889 5889 5889 5888 5888 5888 5887 5887 5886 5885 5885 5885 5884 5884 5883 5883 5882 5882 5881 5881 5880 5880 5879 5878 5878 5877 5877 5876 5876 5875 5874 5873 5873 5872 5872 5871 5870 5869 5868 5867 5866 5865 5864 5863 5862 5862 5861 5860
5891 5891 5891 5891 5892 5892 5892 5892 5892 5892 5892 5892 5892 5892 5892 5892 5892 5892 5892 5892 5892 5892 5892 5892 5892 5892 5892 5892 5892 5892 5892 5892 5893 5893 5893 5893 5893 5892 5892 5892 5892 5892 5892 5892 5891 5891 5891 5891 5891 5891 5890 5890 5890 5889 5889 5889 5888 5888 5888 5887 5887 5886 5886 5885 5885 5884 5884 5883 5883 5883 5882 5882 5881 5880 5880 5879 5879 5878 5878 5877 5877 5876 5875 5875 5874 5873 5873 5872 5871 5871 5870 5869 5868 5867 5866 5865 5864 5863 5863 5862 5861 5860 5859
5890 5890 5891 5891 5891 5891 5891 5891 5891 5891 5891 5891 5891 5891 5891 5892 5892 5892 5892 5892 5892 5892 5892 5892 5892 5892 5892 5892 5892 5892 5892 5892 5892 5892 5892 5892 5892 5892 5892 5892 5892 5891 5891 5891 5891 5891 5890 5890 5890 5890 5890 5889 5889 5889 5888 5888 5888 5887 5887 5887 5886 5886 5885 5884 5884 5883 5883 5883 5882 5882 5882 5881 5880 5880 5879 5879 5878 5878 5877 5877 5876 5876 5875 5874 5873 5873 5872 5871 5871 5870 5869 5868 5867 5867 5866 5865 5864 5863 5862 5861 5860 5859 5858
5889 5890 5890 5890 5890 5890 5890 5890 5891 5891 5891 5891 5891 5891 5891 5891 5891 5891 5891 5891 5891 5891 5891 5891 5891 5891 5891 5891 5891 5891 5891 5891 5891 5891 5891 5891 5891 5891 5891 5891 5891 5891 5891 5890 5890 5890 5890 5889 5889 5889 5889 5889 5888 5888 5888 5887 5887 5887 5886 5886 5885 5885 5884 5884 5883 5883 5883 5882 5882 5881 5881 5880 5880 5879 5879 5878 5878 5877 5877 5876 5875 5875 5874 5873 5873 5872 5871 5870 5870 5869 5868 5867 5867 5866 5865 5864 5863 5862 5861 5860 5859 5858 5857
5888 5889 5889 5889 5889 5889 5890 5890 5890 5890 5890 5890 5890 5890 5890 5890 5890 5890 5890 5891 5891 5891 5891 5891 5891 5891 5891 5891 5891 5891 5891 5891 5891 5891 5891 5891 5891 5891 5890 5890 5890 5890 5890 5890 5889 5889 5889 5889 5889 5888 5888 5888 5888 5887 5887 5887 5886 5886 5885 5885 5885 5884 5883 5883 5883 5882 5882 5882 5881 5881 5880 5880 5879 5879 5878 5878 5877 5877 5876 5875 5875 5874 5873 5873 5872 5871 5870 5870 5869 5868 5867 5866 5866 5865 5864 5863 5862 5861 5860 5859 5858 5858 5857
5888 5888 5888 5888 5888 5889 5889 5889 5889 5889 5889 5889 5889 5889 5889 5889 5890 5890 5890 5890 5890 5890 5890 5890 5890 5890 5890 5890 5890 5890 5890 5890 5890 5890 5890 5890 5890 5890 5890 5890 5890 5889 5889 5889 5889 5888 5888 5888 5888 5888 5888 5887 5887 5887 5886 5886 5885 5885 5885 5884 5884 5883 5883 5883 5882 5882 5881 5881 5881 5880 5880 5879 5879 5878 5878 5877 5877 5876 5875 5875 5874 5873 5873 5872 5871 5870 5870 5869 5868 5867 5866 5866 5865 5864 5863 5862 5861 5860 5860 5859 5858 5857 5856
5887 5887 5887 5888 5888 5888 5888 5888 5888 5888 5888 5888 5889 5889 5889 5889 5889 5889 5889 5889 5889 5889 5890 5890 5890 5890 5890 5890 5890 5890 5890 5890 5890 5890 5890 5889 5889 5889 5889 5889 5889 5889 5888 5888 5888 5888 5888 5888 5887 5887 5887 5886 5886 5886 5885 5885 5885 5884 5884 5884 5883 5883 5882 5882 5881 5881 5881 5880 5880 5880 5879 5879 5878 5878 5877 5877 5876 5876 5875 5874 5873 5873 5872 5871 5870 5870 5869 5868 5867 5866 5865 5865 5864 5863 5862 5861 5860 5859 5859 5858 5857 5856 5854
5886 5886 5886 5887 5887 5887 5887 5888 5888 5888 5888 5888 5888 5888 5888 5888 5888 5888 5888 5889 5889 5889 5889 5889 5889 5889 5889 5889 5889 5889 5889 5889 5889 5889 5889 5889 5889 5889 5888 5888 5888 5888 5888 5888 5887 5887 5887 5887 5887 5886 5886 5886 5885 5885 5885 5884 5884 5884 5883 5883 5883 5882 5882 5881 5881 5880 5880 5880 5879 5879 5879 5878 5878 5877 5877 5876 5875 5875 5874 5873 5873 5872 5871 5870 5870 5869 5868 5867 5866 5865 5864 5864 5863 5862 5861 5860 5860 5859 5858 5857 5856 5854 5853
5885 5885 5885 5886 5886 5886 5886 5887 5887 5887 5887 5887 5887 5888 5888 5888 5888 5888 5888 5888 5888 5888 5888 5888 5889 5889 5889 5889 5889 5889 5889 5888 5888 5888 5888 5888 5888 5888 5888 5888 5888 5888 5887 5887 5887 5887 5886 5886 5886 5886 5885 5885 5885 5884 5884 5884 5883 5883 5883 5883 5882 5882 5881 5881 5880 5880 5879 5879 5878 5878 5878 5878 5877 5876 5876 5875 5875 5874 5873 5873 5872 5871 5870 5870 5869 5868 5867 5866 5865 5864 5863 5863 5862 5861 5860 5859 5859 5858 5857 5856 5855 5853 5853
5884 5884 5884 5885 5885 5885 5886 5886 5886 5886 5886 5887 5887 5887 5887 5887 5887 5887 5887 5887 5888 5888 5888 5888 5888 5888 5888 5888 5888 5888 5888 5888 5888 5888 5888 5888 5888 5888 5887 5887 5887 5887 5887 5886 5886 5886 5886 5885 5885 5885 5885 5884 5884 5884 5883 5883 5883 5883 5882 5882 5881 5881 5880 5880 5879 5879 5879 5878 5878 5878 5877 5877 5876 5876 5875 5875 5874 5873 5873 5872 5871 5870 5870 5869 5868 5867 5866 5865 5864 5863 5863 5862 5861 5860 5859 5858 5858 5857 5856 5854 5853 5853 5851
5883 5883 5883 5884 5884 5884 5885 5885 5885 5885 5886 5886 5886 5886 5886 5886 5886 5886 5886 5887 5887 5887 5887 5887 5887 5887 5887 5887 5887 5887 5887 5887 5887 5887 5887 5887 5887 5887 5887 5887 5886 5886 5886 5886 5885 5885 5885 5885 5884 5884 5884 5884 5883 5883 5883 5883 5882 5882 5882 5881 5881 5880 5880 5879 5879 5878 5878 5878 5877 5877 5877 5876 5876 5875 5874 5874 5873 5873 5872 5871 5870 5870 5869 5868 5867 5866 5865 5864 5863 5863 5862 5861 5860 5859 5858 5857 5856 5855 5854 5853 5852 5851 5850
5882 5882 5883 5883 5883 5883 5884 5884 5884 5884 5885 5885 5885 5885 5885 5885 5886 5886 5886 5886 5886 5886 5886 5886 5887 5887 5887 5887 5887 5887 5887 5887 5887 5887 5887 5886 5886 5886 5886 5886 5886 5885 5885 5885 5885 5884 5884 5884 5884 5883 5883 5883 5883 5883 5882 5882 5881 5881 5881 5880 5880 5879 5879 5879 5878 5878 5877 5877 5877 5876 5876 5875 5875 5874 5874 5873 5873 5872 5871 5870 5869 5869 5868 5867 5866 5865 5864 5863 5863 5862 5861 5860 5859 5858 5857 5856 5855 5854 5853 5852 5851 5850 5849
5881 5881 5882 5882 5882 5883 5883 5883 5883 5883 5884 5884 5884 5884 5884 5885 5885 5885 5885 5885 5885 5885 5886 5886 5886 5886 5886 5886 5886 5886 5886 5886 5886 5886 5886 5886 5886 5886 5885 5885 5885 5885 5884 5884 5884 5884 5883 5883 5883 5883 5883 5882 5882 5882 5881 5881 5881 5880 5880 5879 5879 5879 5878 5878 5878 5877 5877 5876 5876 5875 5875 5874 5874 5873 5873 5872 5872 5871 5870 5869 5868 5868 5867 5866 5865 5864 5863 5863 5862 5861 5860 5859 5858 5857 5856 5855 5854 5853 5852 5851 5850 5849 5848
5880 5880 5880 5881 5881 5882 5882 5882 5882 5883 5883 5883 5883 5883 5883 5884 5884 5884 5884 5884 5884 5885 5885 5885 5885 5885 5885 5885 5885 5885 5885 5885 5885 5885 5885 5885 5885 5885 5885 5884 5884 5884 5884 5883 5883 5883 5883 5883 5882 5882 5882 5882 5881 5881 5881 5880 5880 5879 5879 5878 5878 5878 5878 5877 5877 5876 5876 5875 5875 5874 5874 5873 5873 5873 5872 5871 5871 5870 5869 5868 5868 5867 5866 5865 5864 5863 5862 5861 5860 5859 5858 5858 5857 5856 5855 5854 5853 5852 5851 5850 5848 5848 5846
5879 5879 5879 5880 5880 5880 5881 5881 5881 5882 5882 5882 5882 5883 5883 5883 5883 5883 5883 5884 5884 5884 5884 5884 5884 5884 5884 5884 5884 5884 5884 5884 5884 5884 5884 5884 5884 5884 5884 5884 5883 5883 5883 5883 5883 5882 5882 5882 5881 5881 5881 5881 5880 5880 5880 5879 5879 5879 5878 5878 5877 5877 5877 5876 5876 5875 5875 5874 5874 5873 5873 5873 5872 5872 5871 5870 5870 5869 5868 5867 5866 5865 5864 5863 5863 5862 5861 5860 5859 5858 5857 5856 5855 5854 5853 5853 5852 5851 5849 5848 5847 5846 5845
5878 5878 5878 5878 5879 5879 5880 5880 5880 5880 5881 5881 5881 5881 5882 5882 5882 5883 5883 5883 5883 5883 5883 5883 5883 5883 5883 5883 5884 5884 5884 5884 5884 5883 5883 5883 5883 5883 5883 5883 5883 5883 5882 5882 5882 5882 5881 5881 5880 5880 5880 5880 5879 5879 5879 5878 5878 5878 5877 5877 5877 5876 5876 5876 5875 5875 5874 5873 5873 5873 5872 5871 5871 5870 5870 5869 5868 5868 5867 5866 5865 5864 5863 5862 5861 5860 5859 5859 5858 5857 5856 5855 5854 5853 5852 5851 5850 5849 5848 5847 5846 5844 5843
5876 5877 5877 5877 5878 5878 5878 5879 5879 5879 5879 5880 5880 5880 5881 5881 5881 5882 5882 5882 5882 5882 5882 5883 5883 5883 5883 5883 5883 5883 5883 5883 5883 5883 5883 5883 5882 5882 5882 5882 5882 5882 5881 5881 5881 5881 5880 5880 5879 5879 5879 5879 5878 5878 5878 5878 5877 5877 5876 5876 5876 5875 5875 5874 5874 5874 5873 5873 5872 5872 5871 5870 5870 5869 5869 5868 5867 5867 5866 5865 5863 5863 5862 5861 5860 5859 5858 5857 5856 5855 5854 5853 5853 5852 5851 5850 5849 5848 5847 5845 5844 5843 5842
5875 5875 5876 5876 5876 5877 5877 5878 5878 5878 5878 5878 5879 5879 5879 5880 5880 5880 5881 5881 5881 5881 5881 5882 5882 5882 5882 5882 5882 5882 5882 5882 5882 5882 5882 5882 5881 5881 5881 5881 5881 5881 5880 5880 5880 5880 5879 5879 5879 5878 5878 5878 5878 5877 5877 5877 5876 5876 5875 5875 5875 5874 5874 5873 5873 5873 5872 5872 5871 5871 5870 5869 5869 5868 5868 5867 5866 5865 5864 5863 5862 5861 5860 5859 5858 5858 5857 5856 5855 5854 5853 5852 5851 5850 5849 5848 5847 5846 5845 5844 5843 5842 5840
5874 5874 5874 5875 5875 5875 5876 5876 5877 5877 5877 5878 5878 5878 5878 5878 5879 5879 5879 5880 5880 5880 5880 5880 5881 5881 5881 5881 5881 5881 5881 5881 5881 5881 5881 5881 5880 5880 5880 5880 5880 5880 5879 5879 5879 5879 5878 5878 5878 5878 5877 5877 5877 5876 5876 5875 5875 5875 5874 5874 5873 5873 5873 5873 5872 5872 5871 5871 5870 5869 5869 5868 5868 5867 5866 5865 5865 5864 5863 5862 5861 5860 5859 5858 5857 5856 5855 5854 5853 5852 5851 5850 5849 5848 5848 5847 5845 5844 5843 5842 5841 5840 5839
5873 5873 5873 5873 5874 5874 5874 5875 5875 5876 5876 5876 5877 5877 5877 5878 5878 5878 5878 5878 5879 5879 5879 5879 5879 5880 5880 5880 5880 5880 5880 5880 5880 5880 5880 5880 5879 5879 5879 5879 5879 5879 5878 5878 5878 5878 5878 5877 5877 5877 5876 5876 5876 5875 5875 5874 5874 5873 5873 5873 5873 5872 5872 5871 5871 5870 5870 5869 5869 5868 5868 5867 5866 5866 5865 5864 5863 5863 5862 5861 5860 5858 5858 5856 5855 5854 5853 5853 5852 5851 5850 5849 5848 5847 5846 5845 5844 5843 5842 5840 5839 5838 5837
5871 5872 5872 5872 5873 5873 5873 5873 5874 5874 5875 5875 5875 5876 5876 5876 5876 5877 5877 5877 5878 5878 5878 5878 5878 5878 5878 5879 5879 5879 5879 5879 5879 5879 5878 5878 5878 5878 5878 5878 5878 5878 5878 5877 5877 5877 5877 5876 5876 5876 5875 5875 5874 5874 5874 5873 5873 5873 5872 5872 5871 5871 5871 5870 5870 5869 5869 5868 5868 5867 5866 5866 5865 5864 5864 5863 5862 5861 5860 5859 5858 5857 5856 5855 5854 5853 5852 5851 5850 5849 5848 5847 5846 5845 5844 5843 5842 5841 5840 5839 5838 5837 5836
5870 5870 5871 5871 5871 5872 5872 5873 5873 5873 5873 5873 5874 5874 5875 5875 5875 5875 5876 5876 5876 5876 5877 5877 5877 5877 5877 5877 5878 5878 5878 5878 5878 5878 5877 5877 5877 5877 5877 5877 5877 5876 5876 5876 5876 5876 5875 5875 5875 5875 5874 5874 5873 5873 5873 5872 5872 5872 5871 5871 5870 5870 5869 5869 5868 5868 5867 5867 5866 5866 5865 5864 5864 5863 5862 5861 5860 5859 5858 5858 5857 5855 5854 5853 5853 5852 5851 5850 5849 5848 5847 5846 5845 5843 5843 5842 5840 5839 5838 5837 5836 5835 5834
5868 5869 5869 5870 5870 5870 5871 5871 5872 5872 5872 5872 5873 5873 5873 5874 5874 5874 5874 5875 5875 5875 5875 5875 5876 5876 5876 5876 5876 5876 5876 5876 5876 5876 5876 5876 5876 5876 5876 5876 5875 5875 5875 5875 5875 5874 5874 5874 5874 5873 5873 5873 5873 5872 5872 5871 5871 5870 5870 5870 5869 5868 5868 5868 5867 5867 5866 5866 5865 5864 5864 5863 5862 5862 5861 5860 5859 5858 5857 5856 5855 5854 5853 5852 5851 5850 5849 5848 5847 5846 5845 5844 5843 5842 5841 5840 5839 5838 5837 5836 5835 5834 5833
5867 5868 5868 5868 5869 5869 5869 5870 5870 5870 5871 5871 5871 5872 5872 5872 5873 5873 5873 5873 5873 5874 5874 5874 5874 5874 5874 5874 5874 5875 5875 5875 5875 5875 5875 5875 5874 5874 5874 5874 5874 5874 5874 5874 5873 5873 5873 5873 5873 5872 5872 5872 5871 5871 5871 5870 5870 5869 5869 5868 5868 5868 5867 5866 5866 5865 5865 5864 5864 5863 5863 5862 5861 5860 5859 5858 5857 5856 5855 5854 5853 5852 5851 5850 5849 5848 5848 5847 5846 5845 5844 5843 5842 5841 5840 5838 5838 5837 5835 5834 5833 5832 5831
5865 5866 5866 5867 5867 5868 5868 5868 5869 5869 5869 5870 5870 5870 5870 5871 5871 5871 5871 5872 5872 5872 5872 5873 5873 5873 5873 5873 5873 5873 5873 5873 5873 5873 5873 5873 5873 5873 5873 5873 5873 5873 5873 5873 5872 5872 5872 5872 5871 5871 5871 5870 5870 5870 5869 5869 5868 5868 5868 5867 5867 5866 5866 5865 5865 5864 5864 5863 5863 5862 5861 5860 5859 5859 5858 5857 5856 5855 5854 5853 5852 5851 5850 5849 5848 5847 5846 5845 5844 5843 5842 5841 5840 5839 5838 5837 5836 5835 5834 5833 5832 5831 5830
5864 5864 5865 5865 5866 5866 5867 5867 5867 5868 5868 5868 5868 5869 5869 5869 5869 5870 5870 5870 5870 5871 5871 5871 5871 5871 5871 5871 5872 5872 5872 5872 5872 5872 5872 5872 5872 5872 5872 5872 5872 5871 5871 5871 5871 5871 5870 5870 5870 5870 5869 5869 5869 5868 5868 5868 5867 5867 5867 5866 5866 5865 5865 5864 5864 5863 5863 5862 5861 5861 5860 5859 5858 5857 5856 5855 5854 5853 5852 5851 5850 5849 5848 5848 5847 5845 5844 5843 5843 5842 5841 5840 5839 5838 5837 5836 5835 5834 5833 5832 5831 5830 5828
5863 5863 5863 5864 5864 5865 5865 5865 5866 5866 5866 5867 5867 5867 5868 5868 5868 5868 5868 5868 5869 5869 5869 5869 5869 5869 5870 5870 5870 5870 5870 5870 5870 5870 5870 5870 5870 5870 5870 5870 5870 5870 5870 5870 5869 5869 5869 5869 5868 5868 5868 5868 5868 5867 5867 5866 5866 5866 5865 5865 5864 5864 5863 5863 5863 5862 5861 5861 5860 5859 5858 5858 5857 5856 5855 5854 5853 5852 5851 5850 5849 5848 5847 5846 5845 5844 5843 5842 5841 5840 5839 5838 5837 5836 5835 5834 5833 5832 5831 5830 5829 5828 5827
5861 5861 5862 5862 5863 5863 5863 5864 5864 5865 5865 5865 5866 5866 5866 5866 5867 5867 5867 5867 5867 5868 5868 5868 5868 5868 5868 5868 5868 5868 5868 5869 5869 5869 5869 5869 5869 5869 5869 5868 5868 5868 5868 5868 5868 5868 5868 5868 5867 5867 5867 5866 5866 5866 5865 5865 5864 5864 5864 5863 5863 5863 5862 5862 5861 5861 5860 5859 5859 5858 5857 5856 5855 5854 5853 5853 5852 5851 5850 5848 5848 5846 5845 5844 5843 5842 5841 5840 5839 5838 5838 5837 5836 5835 5834 5833 5832 5831 5830 5829 5828 5827 5826
5859 5860 5860 5860 5861 5861 5862 5862 5863 5863 5863 5864 5864 5864 5865 5865 5865 5865 5866 5866 5866 5866 5866 5866 5866 5866 5866 5867 5867 5867 5867 5867 5867 5867 5868 5867 5867 5867 5867 5867 5867 5867 5867 5867 5867 5866 5866 5866 5866 5865 5865 5865 5864 5864 5864 5863 5863 5863 5862 5862 5861 5861 5860 5860 5860 5859 5858 5858 5857 5856 5856 5855 5854 5853 5852 5851 5850 5849 5848 5847 5846 5845 5844 5843 5841 5840 5839 5838 5837 5836 5836 5835 5834 5833 5832 5831 5830 5829 5828 5827 5826 5825 5824
5858 5858 5858 5858 5859 5859 5860 5861 5861 5861 5862 5862 5863 5863 5863 5863 5864 5864 5864 5864 5864 5865 5865 5865 5865 5865 5865 5865 5865 5865 5865 5866 5866 5866 5866 5866 5866 5866 5866 5866 5866 5865 5865 5865 5865 5865 5865 5864 5864 5864 5864 5863 5863 5863 5862 5862 5861 5861 5861 5860 5860 5859 5859 5858 5858 5858 5857 5856 5856 5855 5854 5853 5853 5852 5851 5849 5848 5848 5846 5845 5844 5843 5842 5841 5840 5839 5838 5837 5836 5835 5834 5833 5833 5831 5830 5829 5829 5828 5827 5826 5825 5823 5823
5856 5856 5856 5857 5857 5858 5858 5859 5859 5860 5860 5861 5861 5861 5862 5862 5862 5863 5863 5863 5863 5863 5863 5863 5864 5864 5864 5864 5864 5864 5864 5864 5864 5864 5864 5865 5864 5864 5864 5864 5864 5864 5864 5864 5863 5863 5863 5863 5863 5863 5862 5862 5862 5861 5861 5860 5860 5859 5859 5858 5858 5858 5857 5857 5856 5856 5855 5854 5854 5853 5852 5852 5851 5850 5849 5848 5847 5846 5845 5844 5843 5842 5840 5839 5838 5838 5836 5835 5834 5833 5832 5832 5831 5829 5829 5828 5827 5826 5825 5824 5823 5822 5821
5854 5854 5854 5855 5855 5856 5856 5857 5858 5858 5858 5859 5859 5860 5860 5860 5861 5861 5861 5862 5862 5862 5862 5862 5862 5863 5863 5863 5863 5863 5863 5863 5863 5863 5863 5863 5863 5863 5863 5863 5863 5863 5863 5862 5862 5862 5862 5862 5861 5861 5861 5860 5860 5860 5859 5859 5858 5858 5857 5857 5856 5856 5856 5855 5855 5854 5853 5853 5852 5851 5851 5850 5849 5848 5847 5846 5845 5844 5843 5842 5841 5840 5839 5838 5837 5836 5835 5834 5833 5832 5831 5830 5829 5828 5827 5826 5825 5824 5823 5823 5821 5820 5819
5852 5852 5853 5853 5853 5854 5855 5855 5856 5856 5857 5857 5858 5858 5858 5859 5859 5859 5860 5860 5860 5860 5861 5861 5861 5861 5861 5861 5861 5861 5861 5861 5861 5861 5862 5862 5862 5862 5861 5861 5861 5861 5861 5861 5861 5860 5860 5860 5860 5859 5859 5859 5858 5858 5858 5857 5857 5856 5856 5855 5855 5854 5854 5853 5853 5852 5852 5851 5850 5850 5849 5848 5848 5847 5846 5845 5844 5843 5841 5840 5839 5838 5837 5836 5835 5834 5833 5832 5831 5830 5829 5828 5827 5826 5825 5824 5823 5823 5822 5821 5820 5818 5817
5850 5850 5851 5851 5852 5852 5853 5853 5854 5854 5855 5855 5856 5856 5857 5857 5858 5858 5858 5858 5858 5859 5859 5859 5859 5859 5860 5860 5860 5859 5860 5860 5860 5860 5860 5860 5860 5860 5860 5860 5860 5859 5859 5859 5859 5859 5858 5858 5858 5858 5858 5857 5857 5856 5856 5856 5855 5854 5854 5853 5853 5853 5852 5852 5851 5851 5850 5849 5848 5848 5847 5846 5846 5845 5844 5843 5842 5841 5840 5838 5838 5836 5835 5834 5833 5832 5832 5831 5830 5829 5828 5827 5826 5825 5824 5823 5822 5821 5820 5819 5818 5817 5816
5848 5848 5849 5849 5850 5850 5851 5852 5852 5853 5853 5853 5854 5854 5855 5855 5856 5856 5856 5857 5857 5857 5858 5858 5858 5858 5858 5858 5858 5858 5858 5858 5858 5858 5858 5858 5858 5858 5858 5858 5858 5858 5858 5858 5858 5857 5857 5857 5856 5856 5856 5855 5855 5855 5854 5854 5853 5853 5852 5852 5851 5851 5850 5850 5849 5849 5848 5848 5847 5846 5845 5845 5844 5843 5843 5842 5840 5839 5838 5837 5836 5835 5833 5833 5831 5831 5830 5829 5828 5827 5826 5825 5824 5823 5822 5821 5820 5819 5818 5817 5816 5815 5814
5846 5846 5847 5848 5848 5848 5849 5849 5850 5851 5851 5852 5852 5853 5853 5853 5854 5854 5854 5855 5855 5855 5856 5856 5856 5856 5856 5856 5857 5857 5857 5857 5857 5857 5857 5857 5857 5857 5857 5857 5857 5856 5856 5856 5856 5856 5855 5855 5855 5854 5854 5854 5853 5853 5853 5852 5852 5851 5851 5850 5850 5849 5849 5848 5848 5847 5847 5846 5845 5844 5844 5843 5842 5842 5841 5840 5839 5838 5837 5836 5834 5833 5832 5831 5830 5829 5828 5827 5826 5825 5824 5823 5823 5822 5820 5819 5818 5818 5816 5815 5814 5813 5812
5844 5844 5845 5845 5846 5846 5847 5848 5848 5848 5849 5850 5850 5851 5851 5852 5852 5853 5853 5853 5853 5853 5854 5854 5854 5854 5854 5855 5855 5855 5855 5855 5855 5855 5855 5855 5855 5855 5855 5855 5855 5855 5855 5854 5854 5854 5853 5853 5853 5853 5852 5852 5852 5851 5851 5850 5850 5849 5849 5848 5848 5848 5847 5847 5846 5845 5845 5844 5843 5843 5842 5841 5841 5840 5839 5838 5837 5836 5835 5834 5833 5832 5830 5829 5828 5827 5826 5825 5824 5823 5823 5822 5821 5820 5819 5818 5817 5816 5814 5813 5813 5811 5810
5842 5842 5843 5843 5844 5844 5845 5845 5846 5847 5847 5848 5848 5849 5849 5850 5850 5851 5851 5851 5852 5852 5852 5852 5852 5852 5853 5853 5853 5853 5853 5853 5853 5854 5853 5853 5853 5853 5853 5853 5853 5853 5853 5853 5853 5852 5852 5852 5851 5851 5851 5850 5850 5849 5849 5848 5848 5848 5847 5847 5846 5846 5845 5845 5844 5844 5843 5842 5842 5841 5840 5839 5839 5838 5838 5837 5836 5835 5833 5832 5831 5830 5829 5828 5827 5825 5824 5823 5822 5822 5821 5820 5819 5818 5817 5816 5815 5814 5813 5812 5810 5809 5808
5840 5840 5841 5841 5842 5842 5843 5843 5844 5844 5845 5846 5846 5847 5848 5848 5848 5849 5849 5849 5849 5850 5850 5850 5850 5850 5850 5851 5851 5851 5852 5852 5852 5852 5852 5852 5852 5852 5852 5852 5852 5851 5851 5851 5851 5851 5850 5850 5850 5849 5849 5848 5848 5848 5847 5847 5846 5846 5845 5845 5844 5844 5844 5843 5843 5842 5841 5840 5840 5839 5838 5838 5837 5836 5836 5835 5834 5833 5832 5831 5829 5828 5827 5826 5825 5824 5823 5822 5821 5820 5819 5818 5817 5816 5815 5814 5813 5812 5811 5810 5808 5808 5807
5838 5838 5838 5839 5839 5840 5840 5841 5842 5843 5843 5844 5844 5845 5846 5846 5847 5847 5847 5848 5848 5848 5848 5848 5848 5848 5848 5849 5849 5849 5849 5850 5850 5850 5850 5850 5850 5850 5850 5850 5850 5850 5849 5849 5849 5849 5848 5848 5848 5848 5847 5847 5846 5846 5845 5845 5844 5844 5843 5843 5843 5842 5842 5841 5841 5840 5839 5838 5838 5837 5837 5836 5835 5834 5834 5833 5832 5831 5830 5828 5828 5826 5825 5824 5823 5822 5821 5820 5819 5818 5817 5816 5815 5814 5813 5812 5811 5810 5809 5808 5807 5806 5804
5835 5836 5836 5837 5837 5838 5838 5839 5840 5840 5841 5842 5843 5843 5843 5844 5845 5845 5845 5846 5846 5846 5846 5846 5846 5846 5847 5847 5847 5848 5848 5848 5848 5848 5848 5848 5848 5848 5848 5848 5848 5848 5848 5848 5847 5847 5847 5847 5846 5846 5845 5845 5844 5844 5843 5843 5843 5842 5842 5841 5841 5840 5840 5839 5839 5838 5838 5837 5836 5835 5834 5834 5833 5833 5832 5831 5830 5829 5828 5827 5826 5824 5823 5822 5821 5820 5819 5818 5817 5816 5815 5814 5813 5812 5811 5810 5809 5808 5807 5806 5805 5804 5803
5833 5834 5834 5834 5835 5836 5837 5837 5838 5839 5839 5840 5840 5841 5842 5842 5843 5843 5843 5843 5843 5843 5843 5843 5843 5844 5844 5845 5845 5845 5846 5846 5846 5846 5846 5846 5846 5846 5846 5846 5846 5846 5846 5846 5846 5845 5845 5845 5844 5844 5843 5843 5843 5842 5842 5841 5841 5840 5840 5839 5839 5838 5838 5838 5837 5836 5836 5835 5834 5833 5833 5832 5831 5830 5830 5829 5828 5827 5826 5825 5823 5823 5821 5820 5819 5818 5817 5816 5815 5814 5813 5813 5811 5810 5809 5808 5808 5806 5805 5804 5803 5802 5801
5831 5831 5832 5832 5833 5834 5835 5835 5836 5837 5838 5838 5838 5839 5840 5840 5840 5841 5841 5841 5841 5841 5841 5841 5841 5842 5842 5843 5843 5843 5844 5844 5844 5844 5844 5844 5844 5844 5844 5844 5844 5844 5844 5844 5844 5843 5843 5843 5843 5842 5842 5841 5841 5840 5840 5840 5839 5839 5838 5838 5837 5837 5836 5836 5835 5834 5833 5833 5832 5831 5831 5830 5829 5828 5828 5827 5826 5825 5824 5823 5822 5821 5819 5818 5818 5817 5816 5815 5814 5813 5812 5811 5810 5809 5808 5807 5806 5805 5803 5803 5801 5800 5799
5828 5829 5829 5830 5831 5832 5833 5833 5834 5835 5836 5836 5837 5837 5838 5838 5838 5838 5839 5839 5839 5839 5839 5839 5839 5839 5840 5840 5841 5841 5842 5842 5842 5842 5842 5842 5842 5842 5842 5842 5842 5842 5842 5842 5842 5842 5842 5841 5841 5840 5840 5840 5839 5839 5838 5838 5838 5837 5836 5836 5835 5835 5834 5834 5833 5833 5832 5831 5830 5829 5829 5828 5827 5826 5825 5824 5823 5823 5822 5821 5820 5819 5818 5817 5816 5815 5814 5813 5812 5811 5810 5809 5808 5807 5806 5805 5804 5803 5802 5801 5799 5798 5797
5826 5826 5827 5828 5829 5830 5831 5832 5832 5833 5833 5834 5835 5835 5835 5836 5836 5836 5836 5836 5837 5837 5837 5837 5837 5837 5838 5838 5838 5839 5839 5839 5839 5839 5839 5839 5839 5839 5839 5840 5840 5840 5840 5840 5840 5840 5839 5839 5839 5838 5838 5838 5838 5837 5837 5836 5836 5835 5835 5834 5833 5833 5833 5832 5831 5830 5830 5829 5828 5828 5827 5826 5825 5824 5823 5822 5822 5821 5820 5818 5818 5817 5816 5815 5814 5813 5812 5811 5810 5809 5808 5807 5806 5805 5804 5803 5802 5801 5800 5799 5798 5796 5795
5823 5824 5825 5826 5827 5828 5829 5830 5830 5831 5832 5832 5833 5833 5833 5833 5833 5834 5834 5834 5834 5835 5835 5835 5835 5835 5835 5836 5836 5836 5837 5837 5837 5837 5837 5837 5837 5837 5837 5837 5838 5838 5838 5838 5838 5838 5838 5837 5837 5837 5836 5836 5836 5835 5835 5834 5834 5833 5833 5832 5832 5831 5830 5830 5829 5828 5828 5827 5826 5826 5825 5824 5823 5822 5821 5820 5819 5818 5818 5817 5816 5815 5814 5813 5812 5811 5810 5809 5808 5807 5806 5805 5804 5803 5802 5801 5800 5799 5798 5797 5795 5794 5793
5821 5822 5823 5824 5825 5826 5827 5828 5828 5829 5829 5830 5830 5831 5831 5831 5831 5831 5832 5832 5832 5832 5833 5833 5833 5833 5833 5833 5834 5834 5834 5834 5834 5835 5835 5835 5835 5835 5835 5835 5835 5835 5835 5836 5836 5835 5835 5835 5835 5834 5834 5834 5834 5833 5833 5832 5832 5831 5831 5830 5830 5829 5828 5828 5827 5827 5826 5825 5824 5823 5823 5822 5821 5820 5819 5818 5818 5817 5816 5815 5813 5813 5812 5811 5810 5809 5808 5807 5806 5805 5804 5803 5803 5801 5800 5799 5798 5797 5796 5795 5793 5792 5791
5818 5820 5821 5822 5823 5823 5825 5825 5826 5827 5827 5828 5828 5828 5828 5828 5829 5829 5829 5829 5830 5830 5830 5831 5831 5831 5831 5832 5832 5832 5832 5832 5832 5832 5832 5832 5832 5832 5832 5832 5832 5833 5833 5833 5833 5833 5833 5833 5832 5832 5832 5832 5832 5831 5831 5830 5830 5829 5828 5828 5828 5827 5826 5826 5825 5824 5824 5823 5822 5821 5821 5820 5819 5818 5817 5816 5815 5814 5814 5813 5812 5811 5810 5809 5808 5807 5806 5805 5804 5803 5803 5802 5800 5799 5798 5797 5796 5795 5794 5793 5791 5790 5789
5816 5817 5818 5819 5820 5821 5822 5823 5823 5824 5825 5825 5825 5826 5826 5826 5826 5826 5827 5827 5827 5828 5828 5828 5829 5829 5829 5829 5829 5829 5830 5830 5830 5830 5830 5830 5830 5830 5830 5830 5830 5830 5830 5830 5830 5830 5830 5830 5830 5830 5830 5830 5829 5829 5828 5828 5828 5827 5826 5826 5825 5825 5824 5823 5823 5822 5822 5821 5820 5819 5818 5818 5817 5816 5815 5814 5813 5812 5811 5811 5810 5809 5808 5807 5806 5805 5804 5803 5803 5802 5801 5799 5798 5797 5796 5795 5794 5793 5792 5790 5789 5788 5787
5813 5815 5816 5817 5818 5818 5819 5820 5821 5821 5822 5823 5823 5823 5823 5823 5823 5824 5824 5824 5825 5825 5826 5826 5826 5827 5827 5827 5828 5828 5828 5828 5828 5828 5828 5828 5828 5828 5827 5827 5827 5827 5828 5828 5828 5828 5828 5828 5828 5828 5828 5828 5827 5827 5826 5826 5825 5825 5824 5823 5823 5823 5822 5821 5821 5820 5819 5818 5818 5817 5816 5815 5814 5813 5813 5812 5811 5810 5809 5808 5808 5807 5806 5805 5804 5803 5802 5801 5800 5799 5798 5797 5796 5795 5794 5793 5792 5791 5789 5788 5787 5786 5784
5811 5812 5813 5814 5815 5815 5816 5817 5818 5819 5819 5820 5820 5820 5820 5821 5821 5821 5822 5822 5822 5823 5823 5824 5824 5824 5825 5825 5825 5826 5826 5825 5825 5826 5825 5825 5825 5825 5825 5824 5825 5825 5826 5826 5826 5826 5825 5825 5825 5825 5825 5825 5825 5824 5824 5823 5823 5822 5822 5821 5821 5820 5820 5819 5818 5818 5817 5816 5815 5815 5814 5813 5812 5811 5810 5809 5808 5808 5807 5806 5805 5804 5803 5803 5802 5801 5800 5799 5798 5797 5796 5795 5794 5793 5792 5791 5789 5788 5787 5786 5784 5783 5782
5808 5809 5810 5811 5812 5813 5813 5814 5815 5816 5817 5817 5818 5818 5818 5818 5819 5819 5819 5820 5820 5820 5821 5821 5822 5822 5823 5823 5823 5823 5824 5823 5823 5824 5823 5823 5823 5823 5823 5822 5823 5823 5824 5824 5823 5823 5823 5823 5823 5823 5823 5823 5822 5822 5822 5821 5820 5820 5819 5819 5818 5818 5817 5817 5816 5815 5814 5814 5813 5812 5811 5811 5810 5809 5808 5807 5806 5805 5804 5803 5803 5802 5801 5800 5800 5799 5798 5797 5796 5795 5794 5793 5792 5791 5790 5788 5787 5786 5785 5783 5782 5781 5780
5806 5807 5807 5808 5809 5809 5811 5812 5813 5813 5814 5814 5815 5815 5816 5816 5816 5817 5817 5817 5817 5818 5818 5818 5819 5820 5821 5821 5821 5822 5822 5822 5822 5822 5822 5822 5821 5821 5821 5821 5821 5821 5822 5822 5821 5821 5821 5821 5821 5820 5820 5820 5820 5819 5819 5818 5818 5817 5817 5816 5816 5815 5815 5814 5813 5813 5812 5811 5811 5810 5809 5808 5807 5806 5805 5804 5804 5803 5802 5801 5801 5800 5799 5798 5798 5797 5796 5795 5793 5793 5792 5791 5790 5788 5788 5786 5785 5784 5783 5781 5780 5779 5777
5803 5803 5804 5805 5806 5807 5808 5809 5810 5810 5811 5812 5813 5813 5813 5814 5814 5814 5815 5815 5815 5815 5816 5816 5817 5818 5818 5819 5819 5819 5819 5819 5819 5819 5819 5820 5820 5819 5819 5819 5819 5819 5819 5819 5818 5818 5819 5819 5818 5818 5818 5818 5817 5817 5816 5816 5815 5815 5814 5814 5813 5813 5813 5812 5811 5810 5810 5809 5808 5808 5807 5806 5805 5804 5803 5802 5801 5801 5800 5799 5798 5798 5797 5796 5795 5795 5794 5793 5792 5790 5789 5788 5787 5786 5785 5784 5783 5782 5780 5779 5778 5776 5775
5799 5800 5801 5802 5803 5804 5805 5806 5807 5808 5808 5809 5810 5810 5811 5811 5812 5812 5812 5812 5813 5813 5813 5814 5815 5815 5816 5816 5816 5817 5817 5817 5817 5817 5817 5818 5818 5818 5817 5817 5817 5817 5817 5817 5816 5816 5816 5816 5816 5816 5815 5816 5815 5814 5814 5813 5813 5812 5812 5812 5811 5811 5810 5810 5809 5808 5807 5807 5806 5805 5804 5803 5803 5802 5801 5800 5799 5798 5798 5797 5796 5795 5795 5794 5793 5793 5792 5791 5789 5788 5787 5786 5785 5784 5783 5782 5780 5779 5778 5777 5775 5774 5773
5796 5796 5797 5798 5800 5802 5803 5803 5804 5805 5806 5806 5807 5808 5808 5808 5809 5809 5809 5810 5810 5811 5811 5812 5812 5813 5813 5813 5813 5814 5814 5814 5815 5815 5815 5815 5815 5815 5815 5814 5815 5815 5814 5814 5814 5813 5813 5813 5813 5813 5813 5813 5813 5812 5811 5811 5811 5810 5810 5809 5809 5808 5808 5807 5807 5806 5805 5804 5804 5803 5802 5801 5800 5799 5798 5798 5797 5796 5795 5795 5794 5793 5793 5792 5791 5791 5790 5789 5788 5787 5785 5784 5783 5782 5780 5779 5778 5777 5776 5774 5773 5772 5770
5795 5795 5796 5797 5798 5799 5800 5801 5801 5802 5803 5803 5804 5805 5805 5806 5806 5806 5807 5808 5808 5808 5809 5809 5810 5810 5810 5811 5811 5811 5811 5812 5812 5812 5813 5813 5813 5813 5812 5812 5812 5812 5812 5811 5811 5811 5810 5811 5811 5810 5809 5811 5811 5809 5809 5808 5808 5808 5807 5807 5807 5806 5806 5805 5804 5803 5803 5802 5802 5801 5800 5799 5798 5797 5796 5796 5795 5794 5793 5793 5792 5791 5790 5790 5789 5788 5788 5787 5786 5784 5783 5782 5781 5779 5778 5777 5775 5774 5773 5772 5770 5769 5768
5794 5795 5795 5796 5796 5797 5798 5798 5799 5799 5800 5800 5801 5802 5802 5803 5803 5804 5804 5805 5806 5806 5806 5807 5807 5807 5808 5808 5808 5808 5808 5809 5809 5810 5810 5810 5810 5810 5810 5810 5810 5809 5809 5809 5808 5808 5808 5808 5808 5807 5807 5808 5808 5808 5807 5806 5806 5805 5805 5805 5804 5804 5803 5803 5802 5801 5801 5800 5799 5798 5797 5797 5796 5795 5794 5793 5793 5792 5791 5790 5789 5789 5788 5788 5787 5786 5785 5784 5783 5782 5781 5780 5778 5777 5775 5774 5773 5772 5770 5769 5768 5766 5765
5793 5793 5794 5794 5794 5795 5795 5795 5796 5796 5797 5797 5798 5798 5799 5800 5801 5801 5802 5803 5803 5803 5804 5804 5804 5804 5804 5804 5805 5805 5805 5805 5806 5807 5807 5807 5807 5807 5808 5807 5807 5807 5807 5806 5806 5806 5806 5805 5805 5804 5805 5805 5805 5805 5805 5804 5803 5803 5802 5802 5802 5802 5801 5800 5800 5799 5798 5798 5797 5796 5795 5794 5793 5793 5792 5791 5790 5789 5788 5788 5787 5787 5786 5785 5784 5784 5783 5782 5781 5780 5778 5777 5776 5774 5773 5771 5770 5769 5768 5766 5765 5764 5762
5791 5791 5792 5792 5792 5793 5793 5793 5793 5794 5794 5794 5795 5795 5796 5797 5798 5798 5799 5800 5801 5801 5801 5801 5801 5801 5801 5801 5802 5802 5802 5802 5803 5803 5804 5804 5804 5805 5805 5804 5804 5804 5804 5804 5803 5803 5803 5803 5802 5802 5802 5802 5802 5802 5802 5802 5801 5800 5799 5799 5799 5799 5798 5798 5797 5797 5796 5795 5794 5794 5793 5792 5791 5790 5789 5788 5788 5787 5786 5785 5785 5784 5783 5783 5782 5781 5780 5779 5778 5777 5776 5774 5773 5772 5770 5769 5768 5766 5765 5763 5762 5761 5759
5788 5788 5789 5789 5789 5790 5791 5791 5791 5791 5791 5791 5792 5793 5793 5794 5795 5796 5797 5797 5798 5798 5798 5798 5798 5798 5798 5798 5798 5799 5799 5799 5799 5800 5802 5801 5801 5801 5802 5802 5802 5802 5802 5801 5801 5801 5801 5800 5799 5799 5799 5799 5799 5799 5799 5799 5799 5798 5797 5797 5797 5796 5796 5795 5795 5794 5793 5793 5792 5791 5790 5789 5789 5788 5787 5786 5785 5784 5784 5783 5783 5782 5781 5780 5779 5778 5778 5777 5775 5774 5773 5772 5770 5769 5767 5766 5765 5763 5762 5761 5759 5758 5757